Location: Bois de la Silve
(44.4667°N, 6.7833°E)
Time: 10:53:05
(UTC+00:00)

Cosmos 1980 Rocket - Pass Details

Date: 14 July 2020
Orbit: 828 x 851 km, 71.0° (Epoch: 05 August)

Event Time Altitude Azimuth Distance (km) Brightness Sun altitude
Rises 01:40:40 0° 337° (NNW) 3,428 5.9 -18.3°
Reaches altitude 10° 01:43:13 10° 342° (NNW) 2,488 5.2 -18.1°
Maximum altitude 01:48:48 53° 60° (ENE) 1,034 3.0 -17.5°
Drops below altitude 10° 01:54:20 10° 137° (SE) 2,464 4.5 -17.0°
Sets 01:56:50 0° 142° (SE) 3,393 5.2 -16.8°
